Time,TemperatureF,DewpointF,PressureIn,WindDirection,WindDirectionDegrees,WindSpeedMPH,WindSpeedGustMPH,Humidity,HourlyPrecipIn,Conditions,Clouds,dailyrainin,SoftwareType,DateUTC
2013-03-18 00:08:00,34.7,21.0,29.77,SE,135,4.2,-999.0,57,-99.99,,,0.00,Acu-Link.com,2013-03-18 06:08:00,
2013-03-18 00:23:00,34.7,21.5,29.77,SE,135,2.7,-999.0,58,-99.99,,,0.00,Acu-Link.com,2013-03-18 06:23:00,
2013-03-18 00:38:00,34.2,21.4,29.78,SE,135,3.7,-999.0,59,-99.99,,,0.00,Acu-Link.com,2013-03-18 06:38:00,
2013-03-18 00:53:00,33.6,20.8,29.78,SE,135,2.7,-999.0,59,-99.99,,,0.00,Acu-Link.com,2013-03-18 06:53:00,
2013-03-18 01:08:00,33.4,20.6,29.78,SE,135,1.7,-999.0,59,-99.99,,,0.00,Acu-Link.com,2013-03-18 07:08:00,
2013-03-18 01:23:00,32.0,19.7,29.79,SE,135,2.2,-999.0,60,-99.99,,,0.00,Acu-Link.com,2013-03-18 07:23:00,
2013-03-18 01:38:00,32.4,20.1,29.79,SE,135,4.2,-999.0,60,-99.99,,,0.00,Acu-Link.com,2013-03-18 07:38:00,
2013-03-18 01:54:00,31.8,19.5,29.79,SE,135,2.2,-999.0,60,-99.99,,,0.00,Acu-Link.com,2013-03-18 07:54:00,
2013-03-18 02:09:00,30.4,18.6,29.80,SE,135,3.7,-999.0,61,-99.99,,,0.00,Acu-Link.com,2013-03-18 08:09:00,
2013-03-18 02:24:00,30.0,17.4,29.80,SE,135,0.0,-999.0,59,-99.99,,,0.00,Acu-Link.com,2013-03-18 08:24:00,
2013-03-18 02:39:00,30.0,16.6,29.80,SE,135,2.2,-999.0,57,-99.99,,,0.00,Acu-Link.com,2013-03-18 08:39:00,
2013-03-18 02:54:00,29.5,16.2,29.80,SE,135,3.2,-999.0,57,-99.99,,,0.00,Acu-Link.com,2013-03-18 08:54:00,
2013-03-18 03:12:00,28.8,16.3,29.81,SE,135,2.2,-999.0,59,-99.99,,,0.00,Acu-Link.com,2013-03-18 09:12:00,
2013-03-18 03:27:00,28.2,15.3,29.81,SE,135,3.7,-999.0,58,-99.99,,,0.00,Acu-Link.com,2013-03-18 09:27:00,
2013-03-18 03:42:00,28.4,15.9,29.81,SE,135,3.2,-999.0,59,-99.99,,,0.00,Acu-Link.com,2013-03-18 09:42:00,
2013-03-18 03:57:00,27.3,15.3,29.81,SE,135,3.2,-999.0,60,-99.99,,,0.00,Acu-Link.com,2013-03-18 09:57:00,
2013-03-18 04:13:00,27.0,15.7,29.81,SE,135,2.7,-999.0,62,-99.99,,,0.00,Acu-Link.com,2013-03-18 10:13:00,
2013-03-18 04:28:00,26.6,15.7,29.81,SE,135,4.2,-999.0,63,-99.99,,,0.00,Acu-Link.com,2013-03-18 10:28:00,
2013-03-18 04:43:00,26.6,15.7,29.80,SE,135,2.7,-999.0,63,-99.99,,,0.00,Acu-Link.com,2013-03-18 10:43:00,
2013-03-18 04:58:00,26.8,15.9,29.81,SE,135,2.7,-999.0,63,-99.99,,,0.00,Acu-Link.com,2013-03-18 10:58:00,
2013-03-18 05:14:00,28.2,16.5,29.81,SE,135,4.7,-999.0,61,-99.99,,,0.00,Acu-Link.com,2013-03-18 11:14:00,
2013-03-18 05:29:00,28.6,16.5,29.81,SE,135,3.7,-999.0,60,-99.99,,,0.00,Acu-Link.com,2013-03-18 11:29:00,
2013-03-18 05:44:00,28.8,16.3,29.81,ESE,112,4.7,-999.0,59,-99.99,,,0.00,Acu-Link.com,2013-03-18 11:44:00,
2013-03-18 05:59:00,28.0,15.5,29.81,ESE,112,4.2,-999.0,59,-99.99,,,0.00,Acu-Link.com,2013-03-18 11:59:00,
2013-03-18 06:14:00,28.4,15.9,29.81,ESE,112,5.8,-999.0,59,-99.99,,,0.00,Acu-Link.com,2013-03-18 12:14:00,
2013-03-18 06:30:00,28.9,16.0,29.83,SE,135,4.2,-999.0,58,-99.99,,,0.00,Acu-Link.com,2013-03-18 12:30:00,
2013-03-18 06:45:00,28.9,15.6,29.83,SE,135,4.2,-999.0,57,-99.99,,,0.00,Acu-Link.com,2013-03-18 12:45:00,
2013-03-18 07:00:00,28.8,15.5,29.83,SE,135,4.2,-999.0,57,-99.99,,,0.00,Acu-Link.com,2013-03-18 13:00:00,
2013-03-18 07:16:00,28.6,14.9,29.84,SE,135,1.7,-999.0,56,-99.99,,,0.00,Acu-Link.com,2013-03-18 13:16:00,
2013-03-18 07:31:00,26.6,14.2,29.84,SE,135,0.0,-999.0,59,-99.99,,,0.00,Acu-Link.com,2013-03-18 13:31:00,
2013-03-18 07:46:00,26.4,14.4,29.85,SE,135,2.7,-999.0,60,-99.99,,,0.00,Acu-Link.com,2013-03-18 13:46:00,
2013-03-18 08:01:00,29.8,17.6,29.85,SE,135,2.2,-999.0,60,-99.99,,,0.00,Acu-Link.com,2013-03-18 14:01:00,
2013-03-18 08:17:00,36.1,20.2,29.87,SE,135,0.0,-999.0,52,-99.99,,,0.00,Acu-Link.com,2013-03-18 14:17:00,
2013-03-18 08:32:00,40.3,21.7,29.87,WNW,292,2.7,-999.0,47,-99.99,,,0.00,Acu-Link.com,2013-03-18 14:32:00,
2013-03-18 09:03:00,44.2,20.8,29.89,SW,225,4.7,-999.0,39,-99.99,,,0.00,Acu-Link.com,2013-03-18 15:03:00,
2013-03-18 09:18:00,43.9,18.0,29.88,West,270,5.8,-999.0,35,-99.99,,,0.00,Acu-Link.com,2013-03-18 15:18:00,
2013-03-18 09:33:00,45.5,15.9,29.88,SW,225,6.3,-999.0,30,-99.99,,,0.00,Acu-Link.com,2013-03-18 15:33:00,
2013-03-18 09:48:00,46.4,15.1,29.87,SW,225,8.3,-999.0,28,-99.99,,,0.00,Acu-Link.com,2013-03-18 15:48:00,
2013-03-18 10:03:00,47.3,15.0,29.87,WSW,247,9.9,-999.0,27,-99.99,,,0.00,Acu-Link.com,2013-03-18 16:03:00,
2013-03-18 10:18:00,47.1,14.0,29.88,South,180,14.5,-999.0,26,-99.99,,,0.00,Acu-Link.com,2013-03-18 16:18:00,
2013-03-18 10:33:00,48.0,15.6,29.88,SW,225,13.5,-999.0,27,-99.99,,,0.00,Acu-Link.com,2013-03-18 16:33:00,
2013-03-18 10:49:00,48.7,14.5,29.89,WSW,247,15.5,-999.0,25,-99.99,,,0.00,Acu-Link.com,2013-03-18 16:49:00,
2013-03-18 11:04:00,50.0,15.6,29.88,WSW,247,21.7,-999.0,25,-99.99,,,0.00,Acu-Link.com,2013-03-18 17:04:00,
2013-03-18 11:19:00,51.6,14.0,29.88,West,270,11.9,-999.0,22,-99.99,,,0.00,Acu-Link.com,2013-03-18 17:19:00,
2013-03-18 11:34:00,51.8,13.1,29.87,WSW,247,18.6,-999.0,21,-99.99,,,0.00,Acu-Link.com,2013-03-18 17:34:00,
2013-03-18 11:52:00,54.1,13.9,29.87,WSW,247,18.6,-999.0,20,-99.99,,,0.00,Acu-Link.com,2013-03-18 17:52:00,
2013-03-18 12:07:00,51.8,10.9,29.87,West,270,21.2,-999.0,19,-99.99,,,0.00,Acu-Link.com,2013-03-18 18:07:00,
2013-03-18 12:22:00,54.1,12.8,29.87,SW,225,21.7,-999.0,19,-99.99,,,0.00,Acu-Link.com,2013-03-18 18:22:00,
2013-03-18 12:37:00,54.7,13.3,29.87,SW,225,11.9,-999.0,19,-99.99,,,0.00,Acu-Link.com,2013-03-18 18:37:00,
2013-03-18 12:52:00,54.1,11.6,29.86,SW,225,18.1,-999.0,18,-99.99,,,0.00,Acu-Link.com,2013-03-18 18:52:00,
2013-03-18 13:08:00,54.9,12.2,29.87,West,270,16.6,-999.0,18,-99.99,,,0.00,Acu-Link.com,2013-03-18 19:08:00,
2013-03-18 13:23:00,55.4,11.3,29.85,WNW,292,28.9,-999.0,17,-99.99,,,0.00,Acu-Link.com,2013-03-18 19:23:00,
2013-03-18 13:38:00,55.6,12.8,29.85,West,270,15.5,-999.0,18,-99.99,,,0.00,Acu-Link.com,2013-03-18 19:38:00,
2013-03-18 13:53:00,55.9,11.7,29.84,West,270,18.1,-999.0,17,-99.99,,,0.00,Acu-Link.com,2013-03-18 19:53:00,
2013-03-18 14:08:00,58.5,11.0,29.84,WNW,292,23.8,-999.0,15,-99.99,,,0.00,Acu-Link.com,2013-03-18 20:08:00,
2013-03-18 14:23:00,57.2,8.5,29.83,West,270,15.5,-999.0,14,-99.99,,,0.00,Acu-Link.com,2013-03-18 20:23:00,
2013-03-18 14:39:00,57.4,10.2,29.84,West,270,14.0,-999.0,15,-99.99,,,0.00,Acu-Link.com,2013-03-18 20:39:00,
2013-03-18 14:54:00,57.2,10.0,29.82,West,270,13.0,-999.0,15,-99.99,,,0.00,Acu-Link.com,2013-03-18 20:54:00,
2013-03-18 15:09:00,52.7,6.4,29.82,West,270,16.6,-999.0,15,-99.99,,,0.00,Acu-Link.com,2013-03-18 21:09:00,
2013-03-18 15:24:00,53.1,5.2,29.82,West,270,16.1,-999.0,14,-99.99,,,0.00,Acu-Link.com,2013-03-18 21:24:00,
2013-03-18 15:39:00,53.2,6.8,29.82,West,270,16.1,-999.0,15,-99.99,,,0.00,Acu-Link.com,2013-03-18 21:39:00,
2013-03-18 15:54:00,54.0,5.9,29.82,WSW,247,13.0,-999.0,14,-99.99,,,0.00,Acu-Link.com,2013-03-18 21:54:00,
2013-03-18 16:09:00,55.0,5.1,29.82,West,270,18.6,-999.0,13,-99.99,,,0.00,Acu-Link.com,2013-03-18 22:09:00,
2013-03-18 16:24:00,57.6,3.5,29.81,WNW,292,14.0,-999.0,11,-99.99,,,0.00,Acu-Link.com,2013-03-18 22:24:00,
2013-03-18 16:39:00,56.1,4.2,29.82,West,270,23.8,-999.0,12,-99.99,,,0.00,Acu-Link.com,2013-03-18 22:39:00,
2013-03-18 16:54:00,56.1,4.2,29.81,West,270,18.1,-999.0,12,-99.99,,,0.00,Acu-Link.com,2013-03-18 22:54:00,
2013-03-18 17:10:00,55.8,4.0,29.82,West,270,23.3,-999.0,12,-99.99,,,0.00,Acu-Link.com,2013-03-18 23:10:00,
2013-03-18 17:25:00,54.5,3.0,29.82,West,270,23.8,-999.0,12,-99.99,,,0.00,Acu-Link.com,2013-03-18 23:25:00,
2013-03-18 17:40:00,53.8,0.6,29.82,WSW,247,22.7,-999.0,11,-99.99,,,0.00,Acu-Link.com,2013-03-18 23:40:00,
2013-03-18 17:55:00,54.3,2.8,29.82,West,270,15.5,-999.0,12,-99.99,,,0.00,Acu-Link.com,2013-03-18 23:55:00,
2013-03-18 18:10:00,54.0,4.3,29.83,West,270,22.2,-999.0,13,-99.99,,,0.00,Acu-Link.com,2013-03-19 00:10:00,
2013-03-18 18:25:00,52.7,1.6,29.84,WSW,247,12.5,-999.0,12,-99.99,,,0.00,Acu-Link.com,2013-03-19 00:25:00,
2013-03-18 18:40:00,51.6,0.7,29.84,West,270,13.0,-999.0,12,-99.99,,,0.00,Acu-Link.com,2013-03-19 00:40:00,
2013-03-18 18:55:00,50.0,2.7,29.85,West,270,9.9,-999.0,14,-99.99,,,0.00,Acu-Link.com,2013-03-19 00:55:00,
2013-03-18 19:10:00,48.6,4.5,29.86,West,270,8.9,-999.0,16,-99.99,,,0.00,Acu-Link.com,2013-03-19 01:10:00,
2013-03-18 19:25:00,46.6,4.2,29.86,West,270,8.9,-999.0,17,-99.99,,,0.00,Acu-Link.com,2013-03-19 01:25:00,
2013-03-18 19:40:00,45.7,4.7,29.87,West,270,9.9,-999.0,18,-99.99,,,0.00,Acu-Link.com,2013-03-19 01:40:00,
2013-03-18 19:56:00,44.4,2.4,29.87,West,270,4.7,-999.0,17,-99.99,,,0.00,Acu-Link.com,2013-03-19 01:56:00,
2013-03-18 20:26:00,40.3,3.5,29.90,SSW,202,4.7,-999.0,21,-99.99,,,0.00,Acu-Link.com,2013-03-19 02:26:00,
2013-03-18 20:41:00,41.4,3.4,29.90,SSW,202,5.8,-999.0,20,-99.99,,,0.00,Acu-Link.com,2013-03-19 02:41:00,
2013-03-18 20:57:00,39.6,3.9,29.90,SSW,202,4.2,-999.0,22,-99.99,,,0.00,Acu-Link.com,2013-03-19 02:57:00,
2013-03-18 21:12:00,36.9,6.1,29.91,SSW,202,2.2,-999.0,27,-99.99,,,0.00,Acu-Link.com,2013-03-19 03:12:00,
2013-03-18 21:27:00,36.3,7.9,29.92,ESE,112,2.7,-999.0,30,-99.99,,,0.00,Acu-Link.com,2013-03-19 03:27:00,
2013-03-18 21:42:00,35.4,7.8,29.93,ESE,112,3.2,-999.0,31,-99.99,,,0.00,Acu-Link.com,2013-03-19 03:42:00,
2013-03-18 21:57:00,35.8,9.5,29.94,ESE,112,3.2,-999.0,33,-99.99,,,0.00,Acu-Link.com,2013-03-19 03:57:00,
2013-03-18 22:13:00,35.1,9.6,29.93,ESE,112,3.7,-999.0,34,-99.99,,,0.00,Acu-Link.com,2013-03-19 04:13:00,
2013-03-18 22:28:00,35.2,11.0,29.94,SE,135,5.3,-999.0,36,-99.99,,,0.00,Acu-Link.com,2013-03-19 04:28:00,
2013-03-18 22:43:00,34.7,11.1,29.93,SE,135,5.8,-999.0,37,-99.99,,,0.00,Acu-Link.com,2013-03-19 04:43:00,
2013-03-18 22:58:00,34.2,10.7,29.94,SE,135,0.0,-999.0,37,-99.99,,,0.00,Acu-Link.com,2013-03-19 04:58:00,
2013-03-18 23:13:00,32.9,11.3,29.94,ESE,112,4.7,-999.0,40,-99.99,,,0.00,Acu-Link.com,2013-03-19 05:13:00,
2013-03-18 23:28:00,32.0,11.0,29.94,ESE,112,3.7,-999.0,41,-99.99,,,0.00,Acu-Link.com,2013-03-19 05:28:00,
2013-03-18 23:44:00,31.5,11.1,29.94,SE,135,3.2,-999.0,42,-99.99,,,0.00,Acu-Link.com,2013-03-19 05:44:00,
2013-03-18 23:59:00,30.6,11.3,29.94,ESE,112,0.0,-999.0,44,-99.99,,,0.00,Acu-Link.com,2013-03-19 05:59:00,